Find Starlink 1281

NORAD ID: 45370 Int'l Des: 2020-019 Owner: SPXS Country: US Constellation: starlink operational
LEOCIRCULAR

リアルタイム位置

3D地球を読み込み中...

Starlink 1281について

説明を読み込み中...

次回通過

Passes for default location (London). Set your location on the main map for personalized predictions.

高度履歴

Loading altitude history...

軌道要素

1 45370U 20019L 26123.78047468 .00057504 00000-0 18206-2 0 9999
2 45370 53.1584 269.2163 0001996 329.0070 31.0814 15.32222329338194
Epoch: May 3, 2026 • Age: 9 hours

現在のステータス

高度 480.1 km
速度 7.63 km/s
衛星直下点 -33.79°S, 157.59°W
打ち上げ日 Mar 18, 2020
運用期間 6.1 years
タイプ internet

技術仕様

分類 Payload
質量 260.00 kg
乾燥質量 248.00 kg
総質量 260.00 kg
長さ 0.20 m
直径 2.80 m
スパン 9.00 m
形状 Box + pan
製造者 SPXS
バスタイプ Starlink
フェーズステータス In Orbit
所有者/国 SPXS/US

Most Searched